| time (UTC) | temp C | wind direction | speed KPH | gust KPH | rain 1hr cm | rain 24hr cm | rain mn cm | humidity % | barometer mb |
| 20260504110517 | 8 | 337 | 6.4 | 16.1 | 0.00 | 0.00 | 0.00 | 70 | 1009.7 |
| 20260504100518 | 7 | 327 | 4.8 | 11.3 | 0.00 | 0.00 | 0.00 | 73 | 1009.5 |
| 20260504081600 | 6 | 1 | 4.8 | 6.4 | 0.00 | 0.00 | 0.00 | 73 | 1009.8 |
| 20260504080520 | 7 | 349 | 1.6 | 3.2 | 0.00 | 0.00 | 0.00 | 73 | 1009.9 |
| 20260504050517 | 7 | 338 | 0.0 | 3.2 | 0.00 | 0.00 | 0.00 | 72 | 1010.3 |
| 20260504045518 | 7 | 345 | 0.0 | 1.6 | 0.00 | 0.00 | 0.00 | 72 | 1010.5 |
| 20260504044517 | 7 | 331 | 1.6 | 3.2 | 0.00 | 0.00 | 0.00 | 71 | 1010.6 |
| 20260504043517 | 6 | 0.0 | 0.0 | 0.00 | 0.00 | 0.00 | 70 | 1010.8 | |
| 20260504042518 | 6 | 353 | 3.2 | 4.8 | 0.00 | 0.00 | 0.00 | 72 | 1011.0 |
| 20260504041538 | 6 | 8 | 3.2 | 4.8 | 0.00 | 0.00 | 0.00 | 72 | 1011.1 |
| 20260504040538 | 6 | 48 | 1.6 | 4.8 | 0.00 | 0.00 | 0.00 | 72 | 1010.8 |
| 20260504035519 | 6 | 16 | 3.2 | 3.2 | 0.00 | 0.00 | 0.00 | 72 | 1010.6 |
| 20260504034519 | 6 | 13 | 3.2 | 4.8 | 0.00 | 0.00 | 0.00 | 72 | 1010.6 |
| 20260504033519 | 5 | 20 | 4.8 | 4.8 | 0.00 | 0.00 | 0.00 | 72 | 1010.4 |
| 20260504032519 | 5 | 17 | 4.8 | 4.8 | 0.00 | 0.00 | 0.00 | 71 | 1010.3 |
| 20260504031519 | 5 | 22 | 4.8 | 4.8 | 0.00 | 0.00 | 0.00 | 68 | 1010.3 |
| 20260504030516 | 6 | 21 | 4.8 | 4.8 | 0.00 | 0.00 | 0.00 | 69 | 1010.3 |
| 20260504025519 | 6 | 15 | 4.8 | 6.4 | 0.00 | 0.00 | 0.00 | 68 | 1010.2 |
| 20260504024520 | 6 | 30 | 3.2 | 3.2 | 0.00 | 0.00 | 0.00 | 65 | 1010.1 |
| 20260504023520 | 6 | 17 | 3.2 | 3.2 | 0.00 | 0.00 | 0.00 | 63 | 1010.2 |
| 20260504022517 | 7 | 11 | 3.2 | 4.8 | 0.00 | 0.00 | 0.00 | 62 | 1010.2 |
| 20260504021517 | 7 | 12 | 3.2 | 3.2 | 0.00 | 0.00 | 0.00 | 62 | 1010.3 |
| 20260504020517 | 7 | 355 | 0.0 | 1.6 | 0.00 | 0.00 | 0.00 | 60 | 1010.3 |
| 20260504015520 | 8 | 0.0 | 0.0 | 0.00 | 0.00 | 0.00 | 55 | 1010.3 | |
| 20260504014520 | 8 | 0.0 | 0.0 | 0.00 | 0.00 | 0.00 | 53 | 1010.3 | |
| 20260504013537 | 8 | 0.0 | 0.0 | 0.00 | 0.00 | 0.00 | 54 | 1010.3 | |
| 20260504012518 | 9 | 30 | 4.8 | 8.0 | 0.00 | 0.00 | 0.00 | 50 | 1010.2 |
| 20260504011518 | 9 | 26 | 6.4 | 9.7 | 0.00 | 0.00 | 0.00 | 49 | 1010.1 |
| 20260504010518 | 10 | 32 | 6.4 | 9.7 | 0.00 | 0.00 | 0.00 | 47 | 1010.0 |
| 20260504005518 | 10 | 20 | 6.4 | 8.0 | 0.00 | 0.00 | 0.00 | 46 | 1009.8 |
| 20260504004519 | 10 | 17 | 6.4 | 8.0 | 0.00 | 0.00 | 0.00 | 44 | 1009.8 |
| 20260504003518 | 10 | 12 | 6.4 | 9.7 | 0.00 | 0.00 | 0.00 | 44 | 1009.7 |
| 20260504002557 | 11 | 12 | 6.4 | 9.7 | 0.00 | 0.00 | 0.00 | 42 | 1009.5 |
| 20260504001517 | 11 | 15 | 6.4 | 9.7 | 0.00 | 0.00 | 0.00 | 40 | 1009.3 |
| 20260504000519 | 11 | 16 | 6.4 | 9.7 | 0.00 | 0.00 | 0.00 | 40 | 1009.2 |
| 20260503235519 | 11 | 17 | 4.8 | 11.3 | 0.00 | 0.00 | 0.00 | 38 | 1009.1 |
| 20260503234517 | 12 | 17 | 4.8 | 8.0 | 0.00 | 0.00 | 0.00 | 37 | 1009.0 |
| 20260503233517 | 12 | 16 | 4.8 | 14.5 | 0.00 | 0.00 | 0.00 | 35 | 1008.7 |
| 20260503232517 | 12 | 22 | 4.8 | 9.7 | 0.00 | 0.00 | 0.00 | 35 | 1008.6 |
| 20260503231517 | 12 | 13 | 3.2 | 12.9 | 0.00 | 0.00 | 0.00 | 33 | 1008.4 |
| 20260503230517 | 13 | 58 | 6.4 | 17.7 | 0.00 | 0.00 | 0.00 | 33 | 1008.4 |
| 20260503225538 | 13 | 33 | 8.0 | 17.7 | 0.00 | 0.00 | 0.00 | 33 | 1008.2 |
| 20260503224518 | 13 | 34 | 11.3 | 16.1 | 0.00 | 0.00 | 0.00 | 30 | 1008.2 |
| 20260503223518 | 13 | 43 | 4.8 | 11.3 | 0.00 | 0.00 | 0.00 | 31 | 1008.2 |
| 20260503222518 | 13 | 20 | 12.9 | 22.5 | 0.00 | 0.00 | 0.00 | 30 | 1008.1 |
| 20260503221518 | 13 | 15 | 9.7 | 19.3 | 0.00 | 0.00 | 0.00 | 31 | 1008.2 |
| 20260503220518 | 13 | 23 | 8.0 | 20.9 | 0.00 | 0.00 | 0.00 | 31 | 1008.2 |
| 20260503215519 | 13 | 21 | 11.3 | 24.1 | 0.00 | 0.00 | 0.00 | 31 | 1008.1 |
| 20260503214519 | 13 | 25 | 8.0 | 24.1 | 0.00 | 0.00 | 0.00 | 30 | 1008.2 |
| 20260503213539 | 13 | 28 | 8.0 | 16.1 | 0.00 | 0.00 | 0.00 | 30 | 1008.2 |
| 20260503212519 | 13 | 19 | 9.7 | 20.9 | 0.00 | 0.00 | 0.00 | 32 | 1008.2 |
| 20260503211519 | 13 | 23 | 8.0 | 14.5 | 0.00 | 0.00 | 0.00 | 33 | 1008.3 |
| 20260503210539 | 13 | 21 | 8.0 | 19.3 | 0.00 | 0.00 | 0.00 | 33 | 1008.2 |
| 20260503205517 | 13 | 27 | 8.0 | 17.7 | 0.00 | 0.00 | 0.00 | 33 | 1008.3 |
| 20260503204517 | 13 | 18 | 8.0 | 16.1 | 0.00 | 0.00 | 0.00 | 34 | 1008.4 |
| 20260503203520 | 13 | 35 | 6.4 | 14.5 | 0.00 | 0.00 | 0.00 | 33 | 1008.6 |
| 20260503202520 | 12 | 19 | 8.0 | 16.1 | 0.00 | 0.00 | 0.00 | 35 | 1008.6 |
| 20260503201517 | 12 | 3 | 3.2 | 9.7 | 0.00 | 0.00 | 0.00 | 36 | 1008.7 |
| 20260503200517 | 13 | 14 | 8.0 | 14.5 | 0.00 | 0.00 | 0.00 | 34 | 1008.7 |
| 20260503195518 | 12 | 3 | 4.8 | 11.3 | 0.00 | 0.00 | 0.00 | 37 | 1008.9 |
| 20260503194538 | 12 | 358 | 4.8 | 9.7 | 0.00 | 0.00 | 0.00 | 39 | 1009.1 |
| 20260503193518 | 12 | 20 | 3.2 | 9.7 | 0.00 | 0.00 | 0.00 | 37 | 1009.3 |
| 20260503192518 | 12 | 71 | 3.2 | 12.9 | 0.00 | 0.00 | 0.00 | 37 | 1009.3 |
| 20260503191518 | 12 | 32 | 3.2 | 9.7 | 0.00 | 0.00 | 0.00 | 39 | 1009.5 |
| 20260503190518 | 11 | 39 | 3.2 | 11.3 | 0.00 | 0.00 | 0.00 | 38 | 1009.5 |
| 20260503185518 | 11 | 68 | 3.2 | 11.3 | 0.00 | 0.00 | 0.00 | 38 | 1009.6 |
| 20260503184519 | 11 | 16 | 8.0 | 20.9 | 0.00 | 0.00 | 0.00 | 41 | 1009.7 |
| 20260503183519 | 11 | 23 | 3.2 | 11.3 | 0.00 | 0.00 | 0.00 | 39 | 1009.8 |
| 20260503182516 | 11 | 40 | 3.2 | 9.7 | 0.00 | 0.00 | 0.00 | 39 | 1009.7 |
| 20260503181519 | 11 | 21 | 3.2 | 9.7 | 0.00 | 0.00 | 0.00 | 38 | 1009.8 |
| 20260503180540 | 11 | 15 | 3.2 | 8.0 | 0.00 | 0.00 | 0.00 | 39 | 1009.9 |
| 20260503175520 | 11 | 29 | 3.2 | 9.7 | 0.00 | 0.00 | 0.00 | 40 | 1010.0 |
| 20260503174537 | 11 | 31 | 4.8 | 17.7 | 0.00 | 0.00 | 0.00 | 39 | 1009.9 |
| 20260503173517 | 11 | 19 | 4.8 | 12.9 | 0.00 | 0.00 | 0.00 | 40 | 1010.0 |
| 20260503172517 | 11 | 24 | 3.2 | 11.3 | 0.00 | 0.00 | 0.00 | 38 | 1010.0 |
| 20260503171537 | 11 | 29 | 4.8 | 14.5 | 0.00 | 0.00 | 0.00 | 39 | 1009.9 |
| 20260503170520 | 11 | 76 | 4.8 | 11.3 | 0.00 | 0.00 | 0.00 | 38 | 1010.0 |
| 20260503150517 | 10 | 26 | 3.2 | 11.3 | 0.00 | 0.00 | 0.00 | 41 | 1010.1 |
| 20260503130518 | 7 | 12 | 3.2 | 8.0 | 0.00 | 0.00 | 0.00 | 69 | 1011.1 |